GW5369 Weather Reports


time (UTC)temp
C
wind
direction
speed
KPH
gust
KPH
rain 1hr
cm
rain 24hr
cm
rain mn
cm
humidity
%
barometer
mb
20260503191004 20 345 4.8 16.1 0.00 0.18 0.00 40 1018.1
20260503190503 20 5 3.2 16.1 0.00 0.18 0.00 44 1018.1
20260503190009 20 342 3.2 14.5 0.00 0.18 0.00 41 1018.2
20260503185504 20 347 3.2 16.1 0.00 0.18 0.00 41 1018.2
20260503185001 20 352 3.2 16.1 0.00 0.20 0.00 42 1018.2
20260503184506 20 318 3.2 19.3 0.00 0.20 0.00 43 1018.2
20260503184006 19 335 6.4 19.3 0.00 0.23 0.00 43 1018.4
20260503183503 20 335 4.8 16.1 0.00 0.23 0.00 43 1018.5
20260503183011 20 333 4.8 16.1 0.00 0.23 0.00 44 1018.6
20260503182503 19 204 6.4 12.9 0.00 0.25 0.00 43 1018.5
20260503182003 19 26 3.2 12.9 0.00 0.25 0.00 42 1018.5
20260503181509 19 284 4.8 12.9 0.00 0.28 0.00 43 1018.7
20260503181004 19 191 3.2 16.1 0.00 0.28 0.00 44 1018.7
20260503180505 19 209 4.8 16.1 0.00 0.28 0.00 44 1018.7
20260503180018 19 285 3.2 11.3 0.00 0.28 0.00 42 1018.8
20260503175504 18 186 1.6 16.1 0.00 0.28 0.00 45 1018.9
20260503175003 18 350 4.8 16.1 0.00 0.28 0.00 44 1018.9
20260503174513 19 317 1.6 16.1 0.00 0.28 0.00 44 1018.9
20260503174004 18 195 6.4 16.1 0.00 0.28 0.00 43 1018.9
20260503173501 18 34 6.4 16.1 0.00 0.28 0.00 46 1018.9
20260503173020 18 352 6.4 14.5 0.00 0.28 0.00 43 1018.9
20260503172504 18 11 3.2 16.1 0.00 0.28 0.00 44 1018.9
20260503172003 18 48 6.4 17.7 0.00 0.30 0.00 46 1018.8
20260503171521 18 269 6.4 17.7 0.00 0.30 0.00 45 1018.8
20260503171005 18 338 3.2 11.3 0.00 0.30 0.00 44 1018.9
20260503170505 18 311 3.2 16.1 0.00 0.30 0.00 45 1018.9
20260503151005 16 33 6.4 16.1 0.00 0.84 0.00 45 1020.0
20260503150507 16 283 4.8 16.1 0.00 0.86 0.00 47 1019.9
20260503131012 12 69 3.2 16.1 0.00 1.09 0.00 74 1019.4
20260503130505 12 5 3.2 14.5 0.00 1.09 0.00 75 1019.4